TimeCST,TemperatureF,Dew PointF,Humidity,Sea Level PressureIn,VisibilityMPH,Wind Direction,Wind SpeedMPH,Gust SpeedMPH,PrecipitationIn,Events,Conditions,WindDirDegrees,DateUTC
12:53 AM,18.0,16.0,92,30.62,10.0,SSW,5.8,-,N/A,,Clear,210,2013-11-13 06:53:00
1:53 AM,17.1,15.1,92,30.62,10.0,West,4.6,-,N/A,,Clear,260,2013-11-13 07:53:00
2:53 AM,18.0,15.1,88,30.62,10.0,WSW,6.9,-,N/A,,Clear,240,2013-11-13 08:53:00
3:53 AM,16.0,15.1,96,30.61,10.0,SSW,4.6,-,N/A,,Clear,210,2013-11-13 09:53:00
4:53 AM,17.1,14.0,88,30.60,10.0,WSW,8.1,-,N/A,,Clear,240,2013-11-13 10:53:00
5:53 AM,16.0,14.0,92,30.60,10.0,SW,6.9,-,N/A,,Clear,220,2013-11-13 11:53:00
6:53 AM,17.1,14.0,88,30.61,10.0,SW,5.8,-,N/A,,Clear,230,2013-11-13 12:53:00
7:53 AM,19.9,16.0,85,30.60,10.0,SW,9.2,-,N/A,,Clear,230,2013-11-13 13:53:00
8:53 AM,23.0,18.0,81,30.58,10.0,SW,9.2,-,N/A,,Clear,220,2013-11-13 14:53:00
9:53 AM,26.1,18.0,71,30.57,10.0,SW,11.5,-,N/A,,Clear,220,2013-11-13 15:53:00
10:53 AM,28.9,19.0,67,30.53,10.0,SSW,15.0,23.0,N/A,,Clear,210,2013-11-13 16:53:00
11:53 AM,30.9,18.0,59,30.50,10.0,SW,15.0,23.0,N/A,,Clear,220,2013-11-13 17:53:00
12:53 PM,34.0,19.9,56,30.46,10.0,SSW,15.0,23.0,N/A,,Clear,210,2013-11-13 18:53:00
1:53 PM,35.1,18.0,50,30.43,10.0,SSW,17.3,24.2,N/A,,Clear,210,2013-11-13 19:53:00
2:53 PM,35.1,19.0,52,30.40,10.0,SW,18.4,-,N/A,,Clear,220,2013-11-13 20:53:00
3:53 PM,34.0,21.9,61,30.39,10.0,SSW,15.0,-,N/A,,Clear,200,2013-11-13 21:53:00
4:53 PM,32.0,23.0,69,30.36,10.0,SSW,16.1,-,N/A,,Clear,210,2013-11-13 22:53:00
5:53 PM,30.9,23.0,72,30.35,10.0,SSW,11.5,20.7,N/A,,Clear,200,2013-11-13 23:53:00
6:53 PM,30.9,23.0,72,30.33,10.0,SSW,15.0,23.0,N/A,,Clear,210,2013-11-14 00:53:00
7:53 PM,30.0,21.9,72,30.31,10.0,SSW,13.8,23.0,N/A,,Clear,210,2013-11-14 01:53:00
8:53 PM,30.0,21.0,69,30.30,10.0,SSW,15.0,20.7,N/A,,Clear,210,2013-11-14 02:53:00
9:53 PM,30.0,19.9,66,30.29,10.0,SSW,13.8,-,N/A,,Clear,210,2013-11-14 03:53:00
10:53 PM,30.0,19.9,66,30.26,10.0,SSW,12.7,-,N/A,,Clear,210,2013-11-14 04:53:00
11:53 PM,28.9,19.9,69,30.25,10.0,SSW,11.5,19.6,N/A,,Clear,200,2013-11-14 05:53:00